Wind_Speed
34 35 38 32 29 32 33 31 28 25 24 23 20 19 18 16 16 14 15 18 18 17 15 14 14 13 12 12 11 10 9 8 8 8 7 9 10 11 11 10 11 11 11
40 40 41 35 33 33 32 31 29 25 23 22 19 17 17 17 16 16 16 16 19 17 16 14 13 12 12 11 10 9 9 9 8 7 10 10 9 8 9 9 9 9 9
45 41 42 37 33 33 31 29 27 24 22 21 19 18 16 16 17 16 15 14 15 17 16 15 13 12 11 10 8 9 9 8 9 9 10 8 7 7 4 5 6 7 7
46 44 39 38 35 33 32 29 26 21 20 19 19 17 15 16 16 16 16 15 15 14 15 15 14 13 11 10 9 9 9 9 10 10 9 7 5 2 1 2 4 5 6
44 45 42 37 37 32 32 29 27 23 21 17 18 17 17 15 15 16 19 19 17 16 13 15 13 12 11 10 11 10 9 10 10 10 8 6 4 3 3 3 3 3 4
44 41 37 32 32 27 29 28 25 22 19 19 14 14 16 15 16 17 18 18 19 18 16 13 13 12 11 10 12 12 10 11 10 10 9 8 5 4 2 1 2 4 4
39 33 31 31 31 26 28 28 24 22 17 19 15 8 12 15 17 18 18 18 20 19 17 17 14 13 13 13 13 14 12 12 11 11 11 9 9 6 5 4 3 3 2
29 29 28 29 29 27 26 27 27 22 16 24 10 9 4 9 17 21 21 21 20 20 21 20 20 19 17 14 15 16 15 13 13 13 14 15 13 11 10 9 9 9 8
31 27 29 28 31 28 28 29 28 26 17 25 18 7 3 6 7 12 24 23 23 24 21 21 23 23 23 21 20 19 19 19 17 16 15 15 16 16 15 14 13 13 12
31 26 23 26 27 34 29 29 31 31 22 18 19 24 11 4 4 4 9 15 20 21 24 22 22 25 26 26 24 22 21 22 23 23 19 17 17 17 17 18 18 17 16
27 27 29 33 34 29 29 31 32 33 34 22 22 12 15 9 9 6 7 7 11 24 26 23 25 25 27 27 25 25 24 25 26 26 26 24 21 21 20 19 21 21 19
32 35 36 30 34 31 34 34 32 35 37 37 26 28 24 13 13 6 5 5 7 11 19 24 25 27 24 24 24 22 20 21 22 22 22 24 24 22 23 23 23 23 23
29 30 31 33 32 31 31 29 30 33 36 36 34 33 35 31 26 23 20 9 8 12 13 21 21 23 22 23 21 19 18 20 19 19 18 19 20 22 23 23 23 24 26
29 28 33 31 30 31 31 31 32 34 34 37 40 43 39 35 38 34 25 14 2 11 15 12 20 25 25 25 21 20 20 20 18 18 20 20 19 19 21 25 23 25 26
29 31 34 32 33 34 34 32 34 35 35 39 40 40 40 34 33 34 33 31 20 7 7 16 18 26 28 26 24 23 23 20 19 20 21 22 23 25 26 27 28 30 30
28 28 31 32 32 34 32 32 34 35 35 40 39 37 36 34 30 31 33 34 27 25 9 22 24 18 24 25 24 24 24 21 21 22 24 24 26 27 28 28 28 31 30
29 28 28 30 33 33 36 35 35 36 39 41 40 39 38 35 36 35 37 35 32 28 18 13 17 20 21 21 22 23 23 23 21 22 23 24 25 26 25 27 29 30 30
34 33 29 28 28 31 34 32 36 37 40 40 40 36 34 31 37 34 35 37 32 31 23 19 19 23 22 20 20 21 19 19 17 19 22 23 25 27 30 31 32 32 32
33 30 28 29 32 35 39 41 42 39 40 43 40 37 38 37 35 33 35 31 30 31 30 20 15 20 20 20 19 18 17 17 19 19 22 25 27 30 31 32 32 32 32
27 27 28 31 34 34 37 37 36 36 37 37 36 37 40 37 40 34 30 31 28 28 24 22 17 14 11 9 11 11 12 12 15 16 22 26 26 27 28 29 29 31 33
27 27 29 31 33 32 35 33 32 34 33 35 35 34 36 37 39 35 33 31 30 24 21 19 11 8 10 8 9 11 12 14 16 17 18 14 14 16 17 21 24 26 26
23 24 29 31 32 35 38 39 35 29 30 31 26 24 26 26 25 27 25 22 20 20 20 13 6 8 8 8 10 12 13 12 9 8 10 12 15 20 19 18 21 24 25
21 25 28 27 27 24 25 26 25 26 23 20 19 18 15 14 14 12 8 12 11 11 11 9 7 7 7 9 8 11 12 14 16 15 16 21 17 22 20 20 22 22 23
13 10 8 7 8 9 11 12 15 14 9 9 11 14 15 13 11 13 11 8 6 3 1 3 5 5 7 7 8 11 12 16 18 19 17 18 17 20 19 20 22 22 22
7 8 8 7 7 8 3 6 7 13 16 17 15 13 13 13 12 9 7 6 4 4 1 3 4 5 7 9 11 9 14 14 17 18 15 19 20 20 19 22 21 21 20
15 15 17 16 16 15 10 10 12 17 20 19 17 16 15 12 13 13 9 4 3 3 4 5 5 5 7 7 10 8 9 14 18 17 6 12 16 14 15 17 14 11 14
Wind_Direction
159 160 162 163 165 165 166 163 163 165 153 156 153 158 151 151 152 151 154 154 147 144 144 143 142 139 133 126 121 124 117 124 112 97 90 109 90 90 79 66 61 57 53
166 166 166 167 169 165 168 164 167 165 160 156 159 160 158 160 166 166 160 161 160 159 155 153 150 146 145 138 135 133 131 129 133 118 111 108 100 90 82 71 54 48 48
170 170 171 171 171 168 171 167 168 166 161 162 164 165 163 165 173 175 169 166 169 172 170 170 169 165 159 155 153 154 151 149 147 134 133 125 115 110 84 65 58 53 47
173 172 174 173 174 173 172 168 170 169 164 165 166 169 173 174 176 178 182 176 175 178 185 185 180 175 175 170 162 161 157 157 153 156 152 145 137 130 132 93 75 56 41
179 181 178 178 177 176 175 169 175 175 173 171 170 177 179 182 183 184 187 190 190 188 187 196 191 187 182 180 176 176 169 164 165 161 153 146 129 124 128 111 81 63 45
186 187 182 179 177 177 176 174 180 181 182 175 167 183 187 193 195 197 199 198 199 198 196 190 193 194 195 188 189 187 183 180 179 181 177 175 170 164 149 111 39 16 16
190 190 186 185 186 189 181 180 183 187 183 180 162 181 205 213 214 214 211 209 208 208 207 206 203 203 208 209 206 202 200 201 202 204 205 207 206 212 220 227 252 278 279
184 191 193 193 193 195 191 188 195 189 191 185 174 165 198 225 232 226 222 219 218 217 218 219 219 218 218 216 221 217 214 218 221 225 231 226 223 223 227 233 242 249 253
189 205 203 201 204 206 203 202 206 205 193 198 200 170 172 218 194 215 227 225 225 225 225 227 229 229 229 229 230 229 225 221 228 238 245 238 235 237 239 239 244 252 262
183 192 204 208 215 216 213 217 220 217 212 205 213 223 232 172 193 194 220 228 229 227 229 230 234 236 237 238 237 237 240 239 236 239 245 248 249 249 247 245 247 252 257
193 205 216 217 218 224 229 231 228 227 225 218 213 214 226 231 229 226 245 190 216 232 236 234 234 240 241 240 241 243 244 248 245 246 254 252 249 252 256 258 256 253 254
201 210 220 225 239 235 231 235 234 236 236 234 234 225 219 217 205 194 225 214 207 242 235 236 236 242 245 245 242 242 243 242 242 246 250 251 251 251 256 259 262 260 256
205 213 216 220 224 228 235 241 245 244 244 239 232 232 235 236 236 226 227 203 210 230 220 222 226 235 230 235 229 224 244 241 245 249 247 248 249 253 256 256 258 262 262
215 219 226 231 237 240 242 244 248 252 252 254 247 241 240 240 239 236 223 197 207 222 224 227 230 225 224 225 222 221 244 239 241 241 244 249 253 254 260 257 255 258 261
227 229 237 244 248 248 248 251 254 256 256 255 250 246 239 238 235 234 231 224 218 227 219 230 220 225 223 222 222 233 233 234 238 240 246 249 253 257 259 261 258 263 261
232 235 242 246 250 254 257 258 261 262 253 254 249 244 242 238 236 232 231 229 224 228 234 218 222 213 213 218 221 224 233 240 242 242 247 253 256 261 263 260 264 264 262
234 238 241 247 253 257 262 263 265 266 260 256 251 246 249 241 240 237 230 226 229 221 230 223 215 208 204 209 217 225 234 244 247 250 254 255 257 258 258 262 264 265 269
231 235 240 242 245 251 258 269 272 259 253 252 252 239 248 244 237 231 226 224 223 221 212 218 206 213 217 220 230 234 236 242 246 253 256 254 256 258 264 266 264 266 268
237 240 242 243 251 255 267 266 259 257 251 249 238 234 243 240 236 224 220 219 216 215 209 205 210 212 220 231 232 237 246 254 257 259 261 263 265 266 268 268 268 268 267
239 243 246 250 251 251 256 253 255 258 251 247 242 249 249 237 234 225 221 214 210 210 214 214 212 216 221 224 234 241 247 256 263 267 269 270 269 271 269 268 269 269 269
237 240 245 252 257 257 264 259 252 246 249 255 257 252 248 238 238 230 219 211 212 208 203 202 188 179 209 211 235 255 257 270 271 269 269 263 267 269 270 271 270 269 269
240 243 250 251 256 262 266 267 257 256 264 256 244 236 233 231 225 224 223 221 200 195 201 185 179 198 205 217 242 251 261 264 278 227 262 266 275 275 272 269 268 271 275
244 250 257 252 252 254 259 268 270 258 252 240 227 213 197 186 183 170 163 155 151 163 184 193 197 205 240 249 250 262 262 264 262 269 274 276 273 271 270 271 276 282 281
237 232 240 257 265 283 287 293 274 241 201 171 174 175 157 139 134 142 147 127 124 136 185 251 265 244 238 245 251 261 269 276 279 275 265 268 276 272 280 277 275 283 280
118 102 91 87 82 67 127 176 191 142 127 109 108 109 115 113 110 123 117 95 45 34 59 199 213 234 243 251 252 265 267 271 275 276 267 264 275 283 283 283 281 280 282
110 106 96 90 92 85 85 109 126 123 109 101 93 86 76 68 53 51 52 58 118 168 231 244 252 252 261 264 270 259 271 274 280 286 284 260 267 282 288 277 277 263 284
Height
823 828 833 839 844 847 852 855 859 863 860 864 868 872 872 875 879 881 883 882 882 884 888 889 889 890 891 891 891 892 893 894 896 897 896 896 896 896 896 895 895 894 893
822 827 832 837 844 846 854 853 857 861 863 864 868 872 872 874 878 880 881 881 882 883 885 888 889 889 890 891 891 892 892 894 895 896 897 897 896 897 897 896 896 896 894
820 826 831 836 843 845 851 854 857 860 862 865 868 871 874 875 877 879 880 881 882 883 884 885 888 889 888 889 891 891 891 892 893 894 895 896 895 895 895 895 896 897 896
818 824 831 835 842 846 849 852 857 861 862 865 868 871 874 876 876 877 879 880 881 882 884 885 885 886 889 888 889 891 890 891 892 893 893 894 894 894 894 895 894 894 894
818 823 830 835 840 845 847 849 856 858 861 864 866 869 871 874 875 877 877 878 879 880 883 884 885 887 888 889 888 890 890 890 891 891 892 893 892 893 893 893 893 893 893
817 824 829 835 841 845 848 848 854 858 860 861 864 868 869 872 873 874 877 877 879 878 880 883 884 884 886 886 887 888 888 888 888 890 890 891 891 892 891 892 893 892 892
816 824 829 835 840 845 844 846 853 856 859 861 862 867 869 869 871 873 874 875 875 878 878 879 881 882 883 884 885 885 886 886 887 888 888 889 890 890 889 890 890 890 889
815 822 827 833 839 843 844 845 849 852 857 858 862 864 867 870 867 868 869 870 872 873 874 876 876 878 879 881 883 883 883 884 885 886 886 886 887 886 886 887 888 889 888
817 825 829 832 837 839 841 843 847 849 852 855 856 857 861 857 860 862 863 864 866 868 870 871 872 873 874 875 877 878 878 879 880 881 882 883 883 883 883 883 884 885 885
816 822 827 832 834 837 839 842 844 846 849 851 854 852 853 853 853 855 859 859 861 862 863 864 866 869 870 871 871 872 873 874 875 876 877 878 879 878 878 879 879 879 879
814 819 827 831 833 833 835 838 839 843 844 846 846 848 850 851 851 851 847 852 854 855 857 857 858 862 862 863 864 864 866 868 869 870 871 871 873 873 873 873 873 873 874
811 819 822 824 826 829 831 833 835 837 838 840 840 841 841 843 844 844 848 848 846 849 849 850 852 853 856 857 858 859 860 861 862 864 864 865 865 867 867 867 868 868 867
807 811 817 820 822 823 825 828 829 830 830 831 833 833 834 834 836 837 839 840 839 843 844 844 844 846 846 849 851 853 855 856 857 857 859 860 860 860 861 861 861 862 861
803 806 811 814 816 818 819 822 822 823 822 822 823 823 824 827 827 828 829 832 838 839 840 837 837 838 840 843 845 847 849 850 850 852 853 854 854 854 854 854 854 854 854
799 800 802 806 810 813 815 816 815 814 815 814 815 814 814 817 818 819 820 821 826 830 832 829 830 829 831 835 838 840 842 843 843 844 846 846 847 847 847 846 846 846 844
792 795 797 799 805 806 807 808 806 806 806 807 806 806 806 808 809 809 811 812 814 820 819 818 818 821 823 825 829 833 835 836 837 837 837 838 838 838 839 838 837 837 835
785 789 790 793 795 797 798 799 798 799 799 798 795 794 794 798 798 798 800 799 805 810 810 812 814 816 817 819 823 825 827 828 828 829 830 830 830 830 830 829 828 828 827
778 780 781 784 786 787 787 789 788 788 785 784 783 781 784 786 787 789 791 790 794 798 800 803 805 808 811 813 816 818 819 820 821 820 822 822 822 821 821 820 818 818 818
767 770 773 775 776 777 778 775 779 779 777 775 771 771 773 774 779 780 778 782 784 788 790 793 797 800 803 806 809 811 812 814 813 812 814 814 813 812 811 809 808 807 806
761 763 765 767 768 769 770 768 768 769 769 769 767 765 765 767 768 769 769 772 777 778 783 789 791 795 799 802 805 805 806 807 808 807 806 805 804 802 800 799 798 797 796
754 757 759 759 759 759 758 759 759 759 760 761 760 758 759 758 760 761 763 764 767 773 778 781 787 788 793 797 799 801 800 801 801 801 799 797 796 795 792 791 789 787 787
748 751 750 750 751 751 751 752 753 753 753 753 753 753 754 755 756 758 760 763 764 766 774 780 782 786 788 790 794 795 795 796 794 792 792 791 790 787 785 783 781 779 778
741 741 742 744 745 746 746 747 748 749 749 749 749 751 753 755 755 757 764 761 765 766 770 776 780 783 787 789 791 792 791 791 789 788 788 783 783 779 778 776 773 770 769
736 738 740 742 742 743 744 745 746 746 748 750 753 754 755 755 758 758 767 768 769 771 773 777 782 784 785 785 785 787 785 785 784 781 782 776 774 771 770 767 764 762 761
734 737 739 741 743 744 745 744 746 748 750 754 757 759 761 762 761 764 765 769 774 774 775 778 780 782 781 783 782 781 781 779 776 774 774 770 767 764 761 759 757 755 753
736 739 742 744 746 749 749 748 748 752 753 758 761 763 766 768 768 766 770 772 774 777 777 777 778 777 777 777 778 777 777 775 772 767 765 764 761 760 754 750 749 749 747